Tracking 28794 objects as of 22-Apr-2024
HD Live streaming from Space Station
objects crossing your sky now

SL-12 R/B(AUX MOTOR)

Track SL-12 R/B(AUX MOTOR) now!
10-day predictions


NORAD ID: 14607
Int'l Code: 1983-127G
Perigee: 378.6 km
Apogee: 17,473.1 km
Inclination: 51.9 °
Period: 313.8 minutes
Semi major axis: 15296 km
RCS: 1.0446 m2 (large)
Launch date: December 29, 1983
Source: Commonwealth of Independent States (former USSR) (CIS)
Launch site: TYURATAM MISSILE AND SPACE COMPLEX (TTMTR)

Note: This is a ROCKET BODY
Your satellite tracking list
Your tracking list is empty




NASA's NSSDC Master Catalog

Two Line Element Set (TLE):
1 14607U 83127G   24113.20846578  .00003454  00000-0  19986-2 0  9991
2 14607  51.9432 193.9800 5587599  69.4265 340.3445  4.58881152654970
Source of the keplerian elements: AFSPC